N4XWC Weather Reports


time (UTC)temp
F
wind
direction
speed
knots
gust
knots
rain 1hr
in
rain 24hr
in
rain mn
in
humidity
%
barometer
mb
20260504221215 75 206 0.9 5.2 0.00 0.00 0.00 48 1013.1
20260504220943 75 261 1.7 5.2 0.00 0.00 0.00 49 1013.1
20260504220444 75 232 3.5 4.3 0.00 0.00 0.00 49 1013.1
20260504220214 75 222 2.6 4.3 0.00 0.00 0.00 48 1013.1
20260504215943 75 246 0.9 1.7 0.00 0.00 0.00 49 1013.2
20260504215443 75 208 0.9 2.6 0.00 0.00 0.00 47 1013.2
20260504215214 75 251 1.7 4.3 0.00 0.00 0.00 47 1013.2
20260504214944 75 140 0.9 4.3 0.00 0.00 0.00 48 1013.2
20260504214445 75 199 2.6 6.1 0.00 0.00 0.00 47 1013.3
20260504214215 75 233 0.9 1.7 0.00 0.00 0.00 47 1013.3
20260504213944 75 261 0.0 1.7 0.00 0.00 0.00 48 1013.3
20260504213443 75 282 1.7 6.1 0.00 0.00 0.00 47 1013.3
20260504213214 75 239 2.6 7.8 0.00 0.00 0.00 46 1013.3
20260504212945 75 212 1.7 5.2 0.00 0.00 0.00 45 1013.4
20260504212443 75 268 10.4 10.4 0.00 0.00 0.00 46 1013.4
20260504212214 76 175 1.7 3.5 0.00 0.00 0.00 46 1013.4
20260504211944 76 280 5.2 8.7 0.00 0.00 0.00 45 1013.4
20260504211443 76 246 8.7 9.6 0.00 0.00 0.00 45 1013.3
20260504211215 76 256 2.6 5.2 0.00 0.00 0.00 45 1013.3
20260504210944 76 191 2.6 7.8 0.00 0.00 0.00 47 1013.3
20260504210443 76 210 0.0 1.7 0.00 0.00 0.00 45 1013.3
20260504210213 76 244 0.9 7.8 0.00 0.00 0.00 45 1013.3
20260504205943 76 256 1.7 8.7 0.00 0.00 0.00 46 1013.3
20260504205444 76 264 6.1 7.0 0.00 0.00 0.00 46 1013.3
20260504205215 76 227 1.7 1.7 0.00 0.00 0.00 46 1013.3
20260504204943 76 193 0.0 5.2 0.00 0.00 0.00 46 1013.3
20260504204444 76 224 1.7 1.7 0.00 0.00 0.00 48 1013.4
20260504204213 76 200 0.9 4.3 0.00 0.00 0.00 46 1013.4
20260504203943 76 246 1.7 7.8 0.00 0.00 0.00 47 1013.4
20260504203445 76 243 1.7 1.7 0.00 0.00 0.00 47 1013.4
20260504203214 76 284 2.6 2.6 0.00 0.00 0.00 47 1013.4
20260504202944 76 196 3.5 5.2 0.00 0.00 0.00 46 1013.6
20260504202444 76 213 0.9 2.6 0.00 0.00 0.00 47 1013.6
20260504202213 76 229 1.7 1.7 0.00 0.00 0.00 48 1013.6
20260504201945 76 223 1.7 4.3 0.00 0.00 0.00 47 1013.6
20260504201445 76 216 3.5 7.8 0.00 0.00 0.00 48 1013.6
20260504201215 76 184 0.9 0.9 0.00 0.00 0.00 49 1013.6
20260504200943 76 244 1.7 5.2 0.00 0.00 0.00 49 1013.6
20260504200443 76 206 0.0 3.5 0.00 0.00 0.00 49 1013.6
20260504200215 76 222 1.7 2.6 0.00 0.00 0.00 49 1013.6
20260504195943 76 212 0.9 3.5 0.00 0.00 0.00 49 1013.9
20260504195444 76 192 0.9 2.6 0.00 0.00 0.00 50 1013.9
20260504195214 76 213 1.7 2.6 0.00 0.00 0.00 51 1013.9
20260504194944 76 206 0.0 1.7 0.00 0.00 0.00 49 1013.9
20260504194444 76 206 2.6 2.6 0.00 0.00 0.00 48 1014.2
20260504194214 75 195 0.0 0.9 0.00 0.00 0.00 47 1014.2
20260504193945 75 208 0.0 0.9 0.00 0.00 0.00 49 1014.2
20260504193443 75 171 0.0 0.9 0.00 0.00 0.00 50 1014.2
20260504193216 75 215 0.0 1.7 0.00 0.00 0.00 51 1014.2
20260504192944 75 169 1.7 5.2 0.00 0.00 0.00 48 1014.4
20260504192444 75 165 1.7 3.5 0.00 0.00 0.00 50 1014.4
20260504192214 75 205 0.0 5.2 0.00 0.00 0.00 52 1014.4
20260504191946 75 240 2.6 5.2 0.00 0.00 0.00 52 1014.4
20260504191445 75 205 1.7 2.6 0.00 0.00 0.00 52 1014.7
20260504191214 75 270 0.0 3.5 0.00 0.00 0.00 52 1014.7
20260504190943 75 160 1.7 4.3 0.00 0.00 0.00 55 1014.7
20260504190446 74 148 0.0 0.9 0.00 0.00 0.00 52 1014.7
20260504190215 74 216 0.0 2.6 0.00 0.00 0.00 52 1014.7
20260504185944 74 215 0.9 1.7 0.00 0.00 0.00 52 1014.8
20260504185443 74 186 2.6 5.2 0.00 0.00 0.00 53 1014.8
20260504185214 74 208 2.6 2.6 0.00 0.00 0.00 53 1014.8
20260504184943 74 209 1.7 5.2 0.00 0.00 0.00 53 1014.8
20260504184444 74 198 0.0 4.3 0.00 0.00 0.00 52 1014.9
20260504184216 74 202 2.6 2.6 0.00 0.00 0.00 53 1014.9
20260504183943 74 216 0.0 0.9 0.00 0.00 0.00 55 1014.9
20260504183444 75 160 0.0 2.6 0.00 0.00 0.00 50 1014.9
20260504183213 75 193 2.6 3.5 0.00 0.00 0.00 54 1014.9
20260504182945 75 210 1.7 2.6 0.00 0.00 0.00 51 1015.2
20260504182443 75 270 0.9 4.3 0.00 0.00 0.00 52 1015.2
20260504182216 75 250 2.6 2.6 0.00 0.00 0.00 53 1015.2
20260504181944 75 302 1.7 4.3 0.00 0.00 0.00 54 1015.2
20260504181443 75 263 3.5 3.5 0.00 0.00 0.00 53 1015.3
20260504181214 75 205 4.3 5.2 0.00 0.00 0.00 54 1015.3
20260504180944 75 155 2.6 2.6 0.00 0.00 0.00 54 1015.3
20260504180443 74 193 1.7 3.5 0.00 0.00 0.00 54 1015.3
20260504180215 74 226 0.0 0.9 0.00 0.00 0.00 54 1015.3
20260504175944 74 236 1.7 2.6 0.00 0.00 0.00 53 1015.5
20260504175443 74 253 0.9 2.6 0.00 0.00 0.00 53 1015.5
20260504175216 74 274 5.2 5.2 0.00 0.00 0.00 53 1015.5
20260504174944 74 250 1.7 7.0 0.00 0.00 0.00 52 1015.5
20260504174443 74 241 0.0 0.0 0.00 0.00 0.00 52 1015.6
20260504174214 74 241 0.0 1.7 0.00 0.00 0.00 52 1015.6
20260504173943 74 241 0.9 0.9 0.00 0.00 0.00 52 1015.6
20260504173445 74 232 3.5 5.2 0.00 0.00 0.00 52 1015.6
20260504173215 74 212 0.9 1.7 0.00 0.00 0.00 52 1015.6
20260504172944 74 264 4.3 4.3 0.00 0.00 0.00 52 1015.7
20260504172444 74 209 4.3 6.1 0.00 0.00 0.00 53 1015.7
20260504172213 74 258 0.0 1.7 0.00 0.00 0.00 52 1015.7
20260504171944 74 256 0.0 2.6 0.00 0.00 0.00 51 1015.7
20260504171444 74 237 0.0 3.5 0.00 0.00 0.00 54 1015.9
20260504171213 74 282 1.7 4.3 0.00 0.00 0.00 53 1015.9
20260504170943 74 287 0.9 1.7 0.00 0.00 0.00 51 1015.9
20260504170444 74 192 0.0 3.5 0.00 0.00 0.00 53 1015.9
20260504170215 73 268 6.1 6.1 0.00 0.00 0.00 52 1015.9
20260504160445 71 237 1.7 4.3 0.00 0.00 0.00 53 1016.9
20260504160214 71 272 3.5 3.5 0.00 0.00 0.00 54 1016.9
20260504150943 67 247 1.7 1.7 0.00 0.00 0.00 59 1017.0
20260504150444 67 254 0.0 0.9 0.00 0.00 0.00 60 1017.0
20260504150214 67 223 0.9 2.6 0.00 0.00 0.00 61 1017.0
20260504141214 62 265 3.5 8.7 0.00 0.00 0.00 65 1017.4
20260504140944 62 199 1.7 4.3 0.00 0.00 0.00 65 1017.4
20260504140444 62 224 0.9 4.3 0.00 0.00 0.00 65 1017.4
20260504140213 62 219 1.7 5.2 0.00 0.00 0.00 65 1017.4
20260504130444 56 206 0.9 2.6 0.00 0.00 0.00 76 1017.8
20260504130218 56 210 0.0 1.7 0.00 0.00 0.00 77 1017.8
20260504120213 52 212 0.9 0.9 0.00 0.00 0.00 79 1017.3
20260504110444 51 179 0.0 0.9 0.00 0.00 0.00 82 1016.7
20260504110213 50 219 0.0 0.9 0.00 0.00 0.00 82 1016.7
20260504100443 49 198 0.0 0.9 0.00 0.00 0.00 89 1017.0
20260504100214 49 215 0.0 0.0 0.00 0.00 0.00 89 1017.0
20260504081945 54 243 0.9 0.9 0.00 0.00 0.00 70 1016.4
20260504081444 55 247 0.0 0.9 0.00 0.00 0.00 68 1016.5
20260504081216 55 234 0.0 0.9 0.00 0.00 0.00 68 1016.5
20260504080943 55 239 0.9 1.7 0.00 0.00 0.00 66 1016.5
20260504080443 55 217 0.9 0.9 0.00 0.00 0.00 65 1016.5
20260504080215 56 247 0.0 1.7 0.00 0.00 0.00 65 1016.5
20260504070214 55 223 1.7 2.6 0.00 0.00 0.00 66 1016.9
20260504060213 58 169 0.9 1.7 0.00 0.00 0.00 58 1017.4
20260504050443 58 244 0.0 1.7 0.00 0.00 0.00 60 1018.0
20260504050213 58 248 0.0 1.7 0.00 0.00 0.00 60 1018.0
20260504045943 58 239 0.0 1.7 0.00 0.00 0.00 61 1018.0
20260504045443 58 244 0.9 2.6 0.00 0.00 0.00 62 1018.0
20260504045215 58 237 0.9 1.7 0.00 0.00 0.00 62 1018.0
20260504044944 58 241 1.7 2.6 0.00 0.00 0.00 62 1018.0
20260504044444 58 248 1.7 1.7 0.00 0.00 0.00 61 1018.0
20260504044215 58 246 0.0 1.7 0.00 0.00 0.00 60 1018.0
20260504043944 58 232 0.0 0.9 0.00 0.00 0.00 60 1018.0
20260504043444 58 208 0.0 0.0 0.00 0.00 0.00 60 1018.0
20260504043215 58 208 0.0 0.0 0.00 0.00 0.00 59 1018.0
20260504042944 59 208 0.0 0.0 0.00 0.00 0.00 58 1018.0
20260504042443 59 215 0.9 0.9 0.00 0.00 0.00 58 1018.0
20260504042215 59 226 0.0 0.0 0.00 0.00 0.00 58 1018.0
20260504041944 59 226 0.0 0.0 0.00 0.00 0.00 58 1018.0
20260504041444 60 229 0.0 0.0 0.00 0.00 0.00 57 1018.1
20260504041216 60 224 0.0 0.9 0.00 0.00 0.00 57 1018.1
20260504040944 60 224 0.0 0.0 0.00 0.00 0.00 57 1018.1
20260504040443 60 253 0.0 0.9 0.00 0.00 0.00 55 1018.1
20260504040213 60 253 0.0 0.9 0.00 0.00 0.00 55 1018.1
20260504035944 60 258 0.9 1.7 0.00 0.00 0.00 55 1018.1
20260504035444 60 271 1.7 1.7 0.00 0.00 0.00 55 1018.1
20260504035215 60 256 0.9 1.7 0.00 0.00 0.00 54 1018.1
20260504034944 61 254 0.9 2.6 0.00 0.00 0.00 54 1018.1
20260504034443 61 256 1.7 1.7 0.00 0.00 0.00 54 1018.2
20260504034214 61 261 0.9 1.7 0.00 0.00 0.00 54 1018.2
20260504033944 61 282 0.9 2.6 0.00 0.00 0.00 54 1018.2
20260504033444 61 261 1.7 2.6 0.00 0.00 0.00 53 1018.2
20260504033215 61 272 2.6 2.6 0.00 0.00 0.00 53 1018.2
20260504032943 61 270 1.7 2.6 0.00 0.00 0.00 53 1018.5
20260504032444 61 271 2.6 2.6 0.00 0.00 0.00 53 1018.5
20260504032214 61 284 0.9 3.5 0.00 0.00 0.00 53 1018.5
20260504031945 61 299 0.9 2.6 0.00 0.00 0.00 53 1018.5
20260504031443 61 284 2.6 2.6 0.00 0.00 0.00 52 1018.5
20260504031215 61 291 2.6 4.3 0.00 0.00 0.00 52 1018.5
20260504030943 61 250 1.7 3.5 0.00 0.00 0.00 52 1018.5
20260504030444 61 264 2.6 2.6 0.00 0.00 0.00 51 1018.5
20260504030213 61 263 0.0 2.6 0.00 0.00 0.00 51 1018.5
20260504025944 61 278 0.9 3.5 0.00 0.00 0.00 51 1018.5
20260504025444 61 260 0.9 4.3 0.00 0.00 0.00 50 1018.5
20260504025215 61 261 0.9 3.5 0.00 0.00 0.00 50 1018.5
20260504024944 61 294 1.7 6.1 0.00 0.00 0.00 50 1018.5
20260504024443 61 313 1.7 2.6 0.00 0.00 0.00 50 1018.2
20260504024215 61 274 2.6 4.3 0.00 0.00 0.00 50 1018.2
20260504023943 61 265 1.7 2.6 0.00 0.00 0.00 50 1018.2
20260504023445 61 298 0.9 2.6 0.00 0.00 0.00 50 1018.2
20260504023214 61 272 1.7 3.5 0.00 0.00 0.00 50 1018.2
20260504022944 61 256 1.7 3.5 0.00 0.00 0.00 50 1018.0
20260504022444 61 264 1.7 4.3 0.00 0.00 0.00 50 1018.0
20260504022214 61 248 0.9 3.5 0.00 0.00 0.00 50 1018.0
20260504021943 61 277 2.6 2.6 0.00 0.00 0.00 50 1018.0
20260504021445 61 270 1.7 3.5 0.00 0.00 0.00 50 1018.0
20260504021215 61 272 0.9 2.6 0.00 0.00 0.00 50 1018.0
20260504020944 61 275 0.9 3.5 0.00 0.00 0.00 50 1018.0
20260504020444 61 282 0.9 2.6 0.00 0.00 0.00 50 1018.0
20260504020214 61 325 0.9 2.6 0.00 0.00 0.00 50 1018.0
20260504020007 61 271 1.7 4.3 0.00 0.00 0.00 50 1018.0
20260504015508 61 254 1.7 1.7 0.00 0.00 0.00 51 1017.9
20260504015214 61 272 1.7 2.6 0.00 0.00 0.00 50 1017.9
20260504015008 61 275 1.7 2.6 0.00 0.00 0.00 50 1017.9
20260504014508 61 281 0.9 2.6 0.00 0.00 0.00 50 1017.9
20260504014214 61 278 1.7 3.5 0.00 0.00 0.00 50 1017.7
20260504014008 61 280 1.7 2.6 0.00 0.00 0.00 51 1017.7
20260504013507 61 281 1.7 2.6 0.00 0.00 0.00 51 1017.7
20260504013214 61 281 2.6 2.6 0.00 0.00 0.00 50 1017.7
20260504013008 61 256 0.9 2.6 0.00 0.00 0.00 50 1017.7
20260504012508 61 251 0.0 2.6 0.00 0.00 0.00 51 1017.6
20260504012214 61 251 1.7 1.7 0.00 0.00 0.00 51 1017.6
20260504012007 61 264 0.9 2.6 0.00 0.00 0.00 51 1017.6
20260504011508 61 268 0.9 1.7 0.00 0.00 0.00 51 1017.6
20260504011214 61 263 0.9 1.7 0.00 0.00 0.00 51 1017.8
20260504011008 61 251 1.7 1.7 0.00 0.00 0.00 51 1017.8
20260504010508 61 258 0.9 0.9 0.00 0.00 0.00 51 1017.8
20260504010213 61 253 0.0 1.7 0.00 0.00 0.00 51 1017.8
20260504010008 61 257 1.7 1.7 0.00 0.00 0.00 51 1017.8
20260504005508 61 264 1.7 1.7 0.00 0.00 0.00 51 1017.7
20260504005216 62 267 0.9 1.7 0.00 0.00 0.00 51 1017.7
20260504005008 62 267 1.7 1.7 0.00 0.00 0.00 51 1017.7
20260504004509 62 265 0.9 1.7 0.00 0.00 0.00 50 1017.7
20260504004214 62 268 0.9 1.7 0.00 0.00 0.00 50 1017.5
20260504004008 62 289 0.9 1.7 0.00 0.00 0.00 50 1017.5
20260504003508 62 256 0.9 1.7 0.00 0.00 0.00 50 1017.5
20260504003215 62 263 0.9 1.7 0.00 0.00 0.00 49 1017.5
20260504003008 62 278 0.9 1.7 0.00 0.00 0.00 49 1017.5
20260504002509 63 285 0.9 1.7 0.00 0.00 0.00 49 1017.4
20260504002215 63 288 1.7 1.7 0.00 0.00 0.00 49 1017.4
20260504002008 63 294 0.0 0.9 0.00 0.00 0.00 49 1017.4
20260504001507 63 284 0.9 1.7 0.00 0.00 0.00 49 1017.4
20260504001248 64 298 0.9 0.9 0.00 0.00 0.00 49 1017.6
20260504001214 64 298 0.9 0.9 0.00 0.00 0.00 49 1017.6
20260504001008 64 291 0.0 1.7 0.00 0.00 0.00 48 1017.6
20260504000508 64 282 0.0 0.9 0.00 0.00 0.00 47 1017.6
20260504000215 64 265 1.7 1.7 0.00 0.00 0.00 47 1017.6
20260504000008 64 263 1.7 1.7 0.00 0.00 0.00 48 1017.6
20260503235507 65 281 0.0 0.9 0.00 0.00 0.00 48 1017.6
20260503235214 65 288 0.0 0.9 0.00 0.00 0.00 46 1017.6
20260503235008 65 288 1.7 1.7 0.00 0.00 0.00 47 1017.6
20260503234507 65 281 0.9 1.7 0.00 0.00 0.00 46 1017.6
20260503234215 65 289 0.9 0.9 0.00 0.00 0.00 46 1017.6
20260503234009 65 289 0.0 0.9 0.00 0.00 0.00 46 1017.6
20260503233508 66 282 1.7 2.6 0.00 0.00 0.00 45 1017.6
20260503233214 66 295 0.0 0.9 0.00 0.00 0.00 45 1017.6
20260503233008 66 298 0.9 4.3 0.00 0.00 0.00 45 1017.6
20260503232510 66 264 0.0 0.9 0.00 0.00 0.00 43 1017.6
20260503232214 66 311 2.6 2.6 0.00 0.00 0.00 43 1017.6
20260503232008 66 305 1.7 4.3 0.00 0.00 0.00 44 1017.6
20260503231508 66 292 0.9 4.3 0.00 0.00 0.00 42 1017.6
20260503231214 66 302 2.6 2.6 0.00 0.00 0.00 43 1017.5
20260503231007 66 319 0.9 2.6 0.00 0.00 0.00 43 1017.5
20260503230509 66 308 0.9 0.9 0.00 0.00 0.00 43 1017.5
20260503230214 67 309 3.5 3.5 0.00 0.00 0.00 43 1017.5
20260503230009 67 272 0.9 2.6 0.00 0.00 0.00 43 1017.5
20260503225508 67 282 0.9 2.6 0.00 0.00 0.00 42 1017.6
20260503225215 67 294 0.0 0.9 0.00 0.00 0.00 41 1017.6
20260503225007 67 284 2.6 3.5 0.00 0.00 0.00 42 1017.6
20260503224508 67 291 1.7 3.5 0.00 0.00 0.00 42 1017.6
20260503224214 67 229 0.9 2.6 0.00 0.00 0.00 44 1017.7
20260503224007 67 0 1.7 1.7 0.00 0.00 0.00 42 1017.7
20260503223508 67 318 0.0 0.9 0.00 0.00 0.00 41 1017.7
20260503223214 67 280 0.0 0.0 0.00 0.00 0.00 41 1017.7
20260503223008 67 278 0.0 1.7 0.00 0.00 0.00 41 1017.7
20260503222509 67 320 1.7 1.7 0.00 0.00 0.00 42 1017.9
20260503222214 67 335 0.9 3.5 0.00 0.00 0.00 42 1017.9
20260503222009 67 329 0.9 2.6 0.00 0.00 0.00 41 1017.9
20260503221509 67 330 2.6 2.6 0.00 0.00 0.00 40 1017.9